Volver al catálogo

COSMOS 1818 COOLANT

LostLEO
NORAD 50776·DEBRIS·🇷🇺 Russia

Lanzado Feb 1, 1987 desde Baikonur Cosmodrome

Loading…

Próximos Pases (próximas 24 horas)

TLE

ObsoletoSource: Space-Track

Época: Aug 25, 2022, 03:49 UTC

1 50776U 87011AR  22237.15928685  .00000154  00000-0  89164-4 0  9994
2 50776  65.0047 134.3594 0016484 258.8623 101.0610 14.34977400458820

Sigue COSMOS 1818 COOLANT en tiempo real con AllMySat

Download on the App Store